TimeCDT,TemperatureF,Dew PointF,Humidity,Sea Level PressureIn,VisibilityMPH,Wind Direction,Wind SpeedMPH,Gust SpeedMPH,PrecipitationIn,Events,Conditions,WindDirDegrees,DateUTC
12:15 AM,34.9,27.3,74,30.05,10.0,NW,3.5,-,N/A,,Clear,320,2013-03-12 05:15:00
12:35 AM,34.3,27.3,76,30.06,10.0,WNW,3.5,-,N/A,,Clear,300,2013-03-12 05:35:00
12:55 AM,33.8,27.3,77,30.07,10.0,WNW,3.5,-,N/A,,Clear,290,2013-03-12 05:55:00
1:15 AM,33.4,27.1,78,30.07,10.0,NW,3.5,-,N/A,,Clear,310,2013-03-12 06:15:00
1:35 AM,32.0,26.4,80,30.06,10.0,North,3.5,-,N/A,,Clear,350,2013-03-12 06:35:00
1:55 AM,31.8,25.7,78,30.06,10.0,North,3.5,-,N/A,,Clear,350,2013-03-12 06:55:00
2:15 AM,30.2,24.6,80,30.07,10.0,NW,3.5,-,N/A,,Clear,320,2013-03-12 07:15:00
2:35 AM,31.1,23.4,73,30.09,10.0,NNW,5.8,-,N/A,,Clear,330,2013-03-12 07:35:00
2:55 AM,32.2,22.6,68,30.09,10.0,NNW,4.6,-,N/A,,Clear,330,2013-03-12 07:55:00
3:15 AM,32.0,21.9,66,30.10,10.0,NW,4.6,-,N/A,,Clear,320,2013-03-12 08:15:00
3:35 AM,32.0,21.2,64,30.10,10.0,NW,3.5,-,N/A,,Clear,320,2013-03-12 08:35:00
3:55 AM,29.7,21.2,71,30.09,10.0,West,3.5,-,N/A,,Scattered Clouds,280,2013-03-12 08:55:00
4:15 AM,30.4,21.6,70,30.10,10.0,West,4.6,-,N/A,,Scattered Clouds,280,2013-03-12 09:15:00
4:35 AM,30.2,21.9,71,30.09,10.0,Calm,Calm,-,N/A,,Clear,0,2013-03-12 09:35:00
4:55 AM,30.6,22.6,72,30.10,10.0,West,3.5,-,N/A,,Clear,270,2013-03-12 09:55:00
5:15 AM,30.0,23.0,75,30.11,10.0,West,5.8,-,N/A,,Clear,260,2013-03-12 10:15:00
5:35 AM,30.2,23.2,75,30.11,10.0,West,5.8,-,N/A,,Clear,260,2013-03-12 10:35:00
5:55 AM,30.2,23.0,75,30.13,10.0,West,5.8,-,N/A,,Scattered Clouds,260,2013-03-12 10:55:00
6:15 AM,31.1,23.9,75,30.14,10.0,West,6.9,-,N/A,,Mostly Cloudy,270,2013-03-12 11:15:00
6:35 AM,32.0,24.4,74,30.14,10.0,West,4.6,-,N/A,,Overcast,270,2013-03-12 11:35:00
6:55 AM,32.0,25.2,76,30.15,10.0,West,3.5,-,N/A,,Overcast,260,2013-03-12 11:55:00
7:15 AM,32.9,26.2,76,30.15,10.0,West,4.6,-,N/A,,Overcast,260,2013-03-12 12:15:00
7:35 AM,34.2,26.2,73,30.16,10.0,West,6.9,-,N/A,,Overcast,280,2013-03-12 12:35:00
7:55 AM,34.7,25.7,70,30.17,10.0,WNW,6.9,-,N/A,,Overcast,300,2013-03-12 12:55:00
8:15 AM,34.7,25.5,69,30.18,10.0,NW,9.2,-,N/A,,Overcast,310,2013-03-12 13:15:00
8:35 AM,34.7,25.0,68,30.18,10.0,NW,11.5,16.1,N/A,,Overcast,320,2013-03-12 13:35:00
8:55 AM,35.6,22.6,59,30.20,10.0,NNW,15.0,-,N/A,,Overcast,330,2013-03-12 13:55:00
9:15 AM,35.8,21.2,55,30.20,10.0,NNW,17.3,27.6,N/A,,Scattered Clouds,330,2013-03-12 14:15:00
9:35 AM,35.6,21.2,56,30.21,10.0,NW,11.5,20.7,N/A,,Clear,320,2013-03-12 14:35:00
9:55 AM,35.6,21.4,56,30.21,10.0,NW,16.1,21.9,N/A,,Clear,320,2013-03-12 14:55:00
10:15 AM,35.8,21.0,55,30.22,10.0,NNW,16.1,25.3,N/A,,Clear,330,2013-03-12 15:15:00
10:35 AM,35.8,21.9,57,30.22,10.0,NW,19.6,25.3,N/A,,Clear,320,2013-03-12 15:35:00
10:55 AM,36.1,20.5,53,30.22,10.0,NNW,20.7,27.6,N/A,,Clear,330,2013-03-12 15:55:00
11:15 AM,36.5,22.3,56,30.24,10.0,NNW,12.7,-,N/A,,Clear,330,2013-03-12 16:15:00
11:35 AM,36.7,21.6,54,30.24,10.0,NW,17.3,28.8,N/A,,Clear,320,2013-03-12 16:35:00
11:55 AM,37.4,22.1,54,30.24,10.0,NNW,18.4,27.6,N/A,,Clear,340,2013-03-12 16:55:00
12:15 PM,37.9,22.6,54,30.25,10.0,NNW,15.0,26.5,N/A,,Clear,330,2013-03-12 17:15:00
12:35 PM,38.3,22.5,53,30.26,10.0,NNW,17.3,24.2,N/A,,Clear,340,2013-03-12 17:35:00
12:55 PM,38.7,22.3,52,30.26,10.0,NNW,16.1,23.0,N/A,,Clear,330,2013-03-12 17:55:00
1:15 PM,39.0,22.5,52,30.27,10.0,NNW,18.4,23.0,N/A,,Clear,340,2013-03-12 18:15:00
1:35 PM,39.2,22.5,51,30.27,10.0,NW,16.1,25.3,N/A,,Clear,320,2013-03-12 18:35:00
1:55 PM,39.4,22.8,52,30.27,10.0,NNW,17.3,27.6,N/A,,Clear,330,2013-03-12 18:55:00
2:15 PM,38.8,22.1,51,30.27,10.0,NNW,20.7,27.6,N/A,,Clear,330,2013-03-12 19:15:00
2:35 PM,38.5,22.8,53,30.27,10.0,NNW,15.0,27.6,N/A,,Clear,330,2013-03-12 19:35:00
2:55 PM,39.4,22.6,51,30.26,10.0,NNW,19.6,-,N/A,,Clear,340,2013-03-12 19:55:00
3:15 PM,39.2,22.5,51,30.26,10.0,NNW,15.0,18.4,N/A,,Clear,330,2013-03-12 20:15:00
3:35 PM,40.3,23.2,51,30.26,10.0,NW,11.5,-,N/A,,Clear,320,2013-03-12 20:35:00
3:55 PM,41.0,23.4,50,30.26,10.0,NNW,13.8,-,N/A,,Clear,330,2013-03-12 20:55:00
4:15 PM,41.9,21.4,44,30.25,10.0,NW,13.8,21.9,N/A,,Clear,320,2013-03-12 21:15:00
4:35 PM,42.3,22.1,45,30.25,10.0,NNW,11.5,21.9,N/A,,Clear,330,2013-03-12 21:35:00
4:55 PM,42.3,19.9,41,30.25,10.0,NNW,12.7,-,N/A,,Clear,330,2013-03-12 21:55:00
5:15 PM,42.4,20.7,42,30.25,10.0,NNW,11.5,19.6,N/A,,Clear,340,2013-03-12 22:15:00
5:35 PM,42.1,19.8,41,30.25,10.0,NNW,15.0,-,N/A,,Clear,340,2013-03-12 22:35:00
5:55 PM,42.1,21.2,43,30.25,10.0,NNW,13.8,18.4,N/A,,Clear,340,2013-03-12 22:55:00
6:15 PM,41.5,21.0,44,30.26,10.0,NNW,10.4,-,N/A,,Clear,340,2013-03-12 23:15:00
6:35 PM,41.0,21.4,46,30.26,10.0,NNW,8.1,-,N/A,,Clear,330,2013-03-12 23:35:00
6:55 PM,40.3,21.7,48,30.26,10.0,NNW,9.2,-,N/A,,Clear,340,2013-03-12 23:55:00
7:15 PM,39.2,22.8,52,30.27,10.0,North,8.1,-,N/A,,Clear,360,2013-03-13 00:15:00
7:35 PM,37.6,23.4,57,30.28,10.0,North,6.9,-,N/A,,Clear,350,2013-03-13 00:35:00
7:55 PM,36.0,23.9,62,30.29,10.0,North,4.6,-,N/A,,Clear,350,2013-03-13 00:55:00
8:15 PM,35.1,23.5,63,30.29,10.0,North,4.6,-,N/A,,Clear,350,2013-03-13 01:15:00
8:35 PM,34.7,23.0,62,30.29,10.0,Calm,Calm,-,N/A,,Clear,0,2013-03-13 01:35:00
8:55 PM,34.0,23.0,64,30.30,10.0,NNE,3.5,-,N/A,,Clear,20,2013-03-13 01:55:00
9:15 PM,32.0,23.7,71,30.32,10.0,NE,4.6,-,N/A,,Clear,40,2013-03-13 02:15:00
9:35 PM,31.3,23.9,74,30.32,10.0,NE,4.6,-,N/A,,Clear,50,2013-03-13 02:35:00
9:55 PM,29.3,23.2,78,30.33,10.0,Calm,Calm,-,N/A,,Clear,0,2013-03-13 02:55:00
10:15 PM,29.7,23.0,76,30.33,10.0,East,3.5,-,N/A,,Clear,90,2013-03-13 03:15:00
10:35 PM,29.7,22.5,75,30.34,10.0,Calm,Calm,-,N/A,,Clear,0,2013-03-13 03:35:00
10:55 PM,29.8,22.1,73,30.34,10.0,Calm,Calm,-,N/A,,Clear,0,2013-03-13 03:55:00
11:15 PM,28.0,21.6,77,30.35,10.0,Calm,Calm,-,N/A,,Clear,0,2013-03-13 04:15:00
11:35 PM,25.7,20.3,80,30.35,10.0,Calm,Calm,-,N/A,,Clear,0,2013-03-13 04:35:00
11:55 PM,24.1,19.4,82,30.36,10.0,Calm,Calm,-,N/A,,Clear,0,2013-03-13 04:55:00